This is the latest recevied weather packets stored in our database for station/object K5NAN. If no packets are shown the sender has not sent any weather packets the latest 10 day(s).
| Time | Temp. | Humidity | Pressure | Rain* | Wind** | Luminosity | Snow |
|---|---|---|---|---|---|---|---|
| 1777992173 | 22.78° C | 82% | 1003.5 hPa | 0 mm | - | 252 W/m² | - |
| 1777991870 | 22.78° C | 82% | 1003.7 hPa | 0 mm | - | 230 W/m² | - |
| 1777991567 | 22.78° C | 81% | 1003.8 hPa | 0 mm | - | 169 W/m² | - |
| 1777991264 | 22.78° C | 81% | 1004 hPa | 0 mm | - | 157 W/m² | - |
| 1777990961 | 22.22° C | 82% | 1003.9 hPa | 0 mm | - | 246 W/m² | - |
| 1777990659 | 22.22° C | 83% | 1003.9 hPa | 0 mm | - | 168 W/m² | - |
| 1777990357 | 22.22° C | 83% | 1004 hPa | 0 mm | - | 148 W/m² | - |
| 1777990052 | 22.22° C | 83% | 1004.1 hPa | 0 mm | - | 101 W/m² | - |
| 1777989749 | 22.22° C | 84% | 1003.9 hPa | 0 mm | - | 129 W/m² | - |
| 1777989445 | 21.67° C | 83% | 1003.8 hPa | 0 mm | - | 141 W/m² | - |
| 1777989142 | 21.67° C | 84% | 1004.1 hPa | 0 mm | - | 135 W/m² | - |
| 1777988838 | 21.67° C | 84% | 1004.1 hPa | 0 mm | - | 96 W/m² | - |
| 1777988535 | 21.67° C | 84% | 1003.9 hPa | 0 mm | - | 121 W/m² | - |
| 1777988232 | 21.67° C | 84% | 1004 hPa | 0 mm | - | 119 W/m² | - |
| 1777987928 | 21.67° C | 85% | 1004 hPa | 0 mm | - | 158 W/m² | - |
| 1777987624 | 21.67° C | 85% | 1003.8 hPa | 0 mm | - | 118 W/m² | - |
| 1777987322 | 21.67° C | 85% | 1003.9 hPa | 0 mm | - | 96 W/m² | - |
| 1777987019 | 21.11° C | 85% | 1004.1 hPa | 0 mm | - | 112 W/m² | - |
| 1777986717 | 21.11° C | 85% | 1003.9 hPa | 0 mm | - | 73 W/m² | - |
| 1777986414 | 21.11° C | 85% | 1004 hPa | 0 mm | - | 50 W/m² | - |
| 1777986113 | 21.11° C | 85% | 1003.9 hPa | 0 mm | - | 40 W/m² | - |
| 1777985809 | 21.11° C | 85% | 1004 hPa | 0 mm | - | 46 W/m² | - |
| 1777985506 | 21.11° C | 86% | 1003.8 hPa | 0 mm | - | 36 W/m² | - |
| 1777985202 | 21.11° C | 86% | 1003.6 hPa | 0 mm | - | 36 W/m² | - |
| 1777984899 | 21.11° C | 86% | 1003.7 hPa | 0 mm | - | 29 W/m² | - |
* Rain latest hour (hover to see other rain measurements)
** Current wind speed in m/s (hover to see current wind gust speed)